This is the latest recevied weather packets stored in our database for station/object JA7ZQY-10. If no packets are shown the sender has not sent any weather packets the latest 10 day(s).
| Time | Temp. | Humidity | Pressure | Rain* | Wind** | Luminosity | Snow |
|---|---|---|---|---|---|---|---|
| 1777548155 | 12.78° C | 50% | 1021.2 hPa | 0 mm | - | - | - |
| 1777547554 | 13.33° C | 57% | 1021.4 hPa | 0 mm | - | - | - |
| 1777546955 | 13.33° C | 53% | 1021.5 hPa | 0 mm | - | - | - |
| 1777546355 | 13.33° C | 53% | 1021.7 hPa | 0 mm | - | - | - |
| 1777545754 | 13.33° C | 54% | 1021.7 hPa | 0 mm | - | - | - |
| 1777545155 | 13.33° C | 54% | 1021.5 hPa | 0 mm | - | - | - |
| 1777544554 | 13.33° C | 54% | 1021.5 hPa | 0 mm | - | - | - |
| 1777543955 | 13.33° C | 54% | 1021.5 hPa | 0 mm | - | - | - |
| 1777543356 | 13.33° C | 52% | 1021.9 hPa | 0 mm | - | - | - |
| 1777542755 | 13.33° C | 55% | 1021.3 hPa | 0 mm | - | - | - |
| 1777542156 | 13.33° C | 53% | 1021.2 hPa | 0 mm | - | - | - |
| 1777541555 | 13.89° C | 42% | 1021.2 hPa | 0 mm | - | - | - |
| 1777540954 | 14.44° C | 41% | 1021.2 hPa | 0 mm | - | - | - |
| 1777540355 | 15.56° C | 34% | 1021.1 hPa | 0 mm | - | - | - |
| 1777539756 | 15.56° C | 35% | 1021 hPa | 0 mm | - | - | - |
| 1777539155 | 16.11° C | 37% | 1021 hPa | 0 mm | - | - | - |
| 1777538556 | 16.67° C | 34% | 1020.9 hPa | 0 mm | - | - | - |
| 1777537955 | 17.22° C | 20% | 1020.6 hPa | 0 mm | - | - | - |
| 1777537356 | 17.22° C | 20% | 1020.4 hPa | 0 mm | - | - | - |
| 1777536755 | 17.78° C | 20% | 1020.6 hPa | 0 mm | - | - | - |
| 1777536156 | 17.78° C | 20% | 1020.6 hPa | 0 mm | - | - | - |
| 1777535555 | 18.33° C | 20% | 1020.6 hPa | 0 mm | - | - | - |
| 1777534956 | 18.33° C | 20% | 1020.3 hPa | 0 mm | - | - | - |
| 1777534355 | 19.44° C | 20% | 1020.1 hPa | 0 mm | - | - | - |
| 1777533756 | 19.44° C | 21% | 1020.4 hPa | 0 mm | - | - | - |
* Rain latest hour (hover to see other rain measurements)
** Current wind speed in m/s (hover to see current wind gust speed)